Time,TemperatureF,DewpointF,PressureIn,WindDirection,WindDirectionDegrees,WindSpeedMPH,WindSpeedGustMPH,Humidity,HourlyPrecipIn,Conditions,Clouds,dailyrainin,SoftwareType,DateUTC
2013-04-21 00:03:00,38.0,-99.9,-100.00,North,-999,-999.0,-999.0,-999,0.00,,,0.18,,2013-04-21 04:03:00,
2013-04-21 00:13:00,38.0,-99.9,-100.00,North,-999,-999.0,-999.0,-999,0.00,,,0.18,,2013-04-21 04:13:00,
2013-04-21 00:23:00,38.0,-99.9,-100.00,North,-999,-999.0,-999.0,-999,0.00,,,0.18,,2013-04-21 04:23:00,
2013-04-21 00:33:00,38.0,-99.9,-100.00,North,-999,-999.0,-999.0,-999,0.00,,,0.18,,2013-04-21 04:33:00,
2013-04-21 00:43:00,38.0,-99.9,-100.00,North,-999,-999.0,-999.0,-999,0.00,,,0.18,,2013-04-21 04:43:00,
2013-04-21 01:02:00,37.0,-99.9,-100.00,North,-999,-999.0,-999.0,-999,0.00,,,0.13,,2013-04-21 05:02:00,
2013-04-21 01:12:00,37.0,-99.9,-100.00,North,-999,-999.0,-999.0,-999,0.00,,,0.13,,2013-04-21 05:12:00,
2013-04-21 01:22:00,37.0,-99.9,-100.00,North,-999,-999.0,-999.0,-999,0.00,,,0.13,,2013-04-21 05:22:00,
2013-04-21 01:33:00,37.0,-99.9,-100.00,North,-999,-999.0,-999.0,-999,0.00,,,0.13,,2013-04-21 05:33:00,
2013-04-21 01:43:00,37.0,-99.9,-100.00,North,-999,-999.0,-999.0,-999,0.00,,,0.13,,2013-04-21 05:43:00,
2013-04-21 02:02:00,37.0,-99.9,-100.00,North,-999,-999.0,-999.0,-999,0.00,,,0.11,,2013-04-21 06:02:00,
2013-04-21 02:12:00,37.0,-99.9,-100.00,North,-999,-999.0,-999.0,-999,0.00,,,0.11,,2013-04-21 06:12:00,
2013-04-21 02:22:00,37.0,-99.9,-100.00,North,-999,-999.0,-999.0,-999,0.00,,,0.11,,2013-04-21 06:22:00,
2013-04-21 02:32:00,37.0,-99.9,-100.00,North,-999,-999.0,-999.0,-999,0.00,,,0.11,,2013-04-21 06:32:00,
2013-04-21 02:43:00,37.0,-99.9,-100.00,North,-999,-999.0,-999.0,-999,0.00,,,0.11,,2013-04-21 06:43:00,
2013-04-21 03:02:00,35.0,-99.9,-100.00,North,-999,-999.0,-999.0,-999,0.00,,,0.10,,2013-04-21 07:02:00,
2013-04-21 03:12:00,35.0,-99.9,-100.00,North,-999,-999.0,-999.0,-999,0.00,,,0.10,,2013-04-21 07:12:00,
2013-04-21 03:22:00,35.0,-99.9,-100.00,North,-999,-999.0,-999.0,-999,0.00,,,0.10,,2013-04-21 07:22:00,
2013-04-21 03:32:00,35.0,-99.9,-100.00,North,-999,-999.0,-999.0,-999,0.00,,,0.10,,2013-04-21 07:32:00,
2013-04-21 03:42:00,35.0,-99.9,-100.00,North,-999,-999.0,-999.0,-999,0.00,,,0.10,,2013-04-21 07:42:00,
2013-04-21 04:02:00,33.0,-99.9,-100.00,North,-999,-999.0,-999.0,-999,0.00,,,0.08,,2013-04-21 08:02:00,
2013-04-21 04:12:00,33.0,-99.9,-100.00,North,-999,-999.0,-999.0,-999,0.00,,,0.08,,2013-04-21 08:12:00,
2013-04-21 04:22:00,33.0,-99.9,-100.00,North,-999,-999.0,-999.0,-999,0.00,,,0.08,,2013-04-21 08:22:00,
2013-04-21 04:32:00,33.0,-99.9,-100.00,North,-999,-999.0,-999.0,-999,0.00,,,0.08,,2013-04-21 08:32:00,
2013-04-21 04:42:00,33.0,-99.9,-100.00,North,-999,-999.0,-999.0,-999,0.00,,,0.08,,2013-04-21 08:42:00,
2013-04-21 05:02:00,32.0,-99.9,-100.00,North,-999,-999.0,-999.0,-999,0.00,,,0.07,,2013-04-21 09:02:00,
2013-04-21 05:12:00,32.0,-99.9,-100.00,North,-999,-999.0,-999.0,-999,0.00,,,0.07,,2013-04-21 09:12:00,
2013-04-21 05:22:00,32.0,-99.9,-100.00,North,-999,-999.0,-999.0,-999,0.00,,,0.07,,2013-04-21 09:22:00,
2013-04-21 05:33:00,32.0,-99.9,-100.00,North,-999,-999.0,-999.0,-999,0.00,,,0.07,,2013-04-21 09:33:00,
2013-04-21 05:43:00,32.0,-99.9,-100.00,North,-999,-999.0,-999.0,-999,0.00,,,0.07,,2013-04-21 09:43:00,
2013-04-21 06:03:00,34.0,-99.9,-100.00,North,-999,-999.0,-999.0,-999,0.00,,,0.01,,2013-04-21 10:03:00,
2013-04-21 06:12:00,34.0,-99.9,-100.00,North,-999,-999.0,-999.0,-999,0.00,,,0.01,,2013-04-21 10:12:00,
2013-04-21 06:23:00,34.0,-99.9,-100.00,North,-999,-999.0,-999.0,-999,0.00,,,0.01,,2013-04-21 10:23:00,
2013-04-21 06:33:00,34.0,-99.9,-100.00,North,-999,-999.0,-999.0,-999,0.00,,,0.01,,2013-04-21 10:33:00,
2013-04-21 06:43:00,34.0,-99.9,-100.00,North,-999,-999.0,-999.0,-999,0.00,,,0.01,,2013-04-21 10:43:00,
2013-04-21 07:03:00,34.0,-99.9,-100.00,North,-999,-999.0,-999.0,-999,0.00,,,0.00,,2013-04-21 11:03:00,
2013-04-21 07:12:00,34.0,-99.9,-100.00,North,-999,-999.0,-999.0,-999,0.00,,,0.00,,2013-04-21 11:12:00,
2013-04-21 07:22:00,34.0,-99.9,-100.00,North,-999,-999.0,-999.0,-999,0.00,,,0.00,,2013-04-21 11:22:00,
2013-04-21 07:34:00,34.0,-99.9,-100.00,North,-999,-999.0,-999.0,-999,0.00,,,0.00,,2013-04-21 11:34:00,
2013-04-21 07:42:00,34.0,-99.9,-100.00,North,-999,-999.0,-999.0,-999,0.00,,,0.00,,2013-04-21 11:42:00,
2013-04-21 08:03:00,35.0,-99.9,-100.00,North,-999,-999.0,-999.0,-999,0.00,,,0.00,,2013-04-21 12:03:00,
2013-04-21 08:12:00,35.0,-99.9,-100.00,North,-999,-999.0,-999.0,-999,0.00,,,0.00,,2013-04-21 12:12:00,
2013-04-21 08:23:00,35.0,-99.9,-100.00,North,-999,-999.0,-999.0,-999,0.00,,,0.00,,2013-04-21 12:23:00,
2013-04-21 08:32:00,35.0,-99.9,-100.00,North,-999,-999.0,-999.0,-999,0.00,,,0.00,,2013-04-21 12:32:00,
2013-04-21 08:43:00,35.0,-99.9,-100.00,North,-999,-999.0,-999.0,-999,0.00,,,0.00,,2013-04-21 12:43:00,
2013-04-21 09:02:00,37.0,-99.9,-100.00,North,-999,-999.0,-999.0,-999,0.00,,,0.00,,2013-04-21 13:02:00,
2013-04-21 09:12:00,37.0,-99.9,-100.00,North,-999,-999.0,-999.0,-999,0.00,,,0.00,,2013-04-21 13:12:00,
2013-04-21 09:22:00,37.0,-99.9,-100.00,North,-999,-999.0,-999.0,-999,0.00,,,0.00,,2013-04-21 13:22:00,
2013-04-21 09:32:00,37.0,-99.9,-100.00,North,-999,-999.0,-999.0,-999,0.00,,,0.00,,2013-04-21 13:32:00,
2013-04-21 09:42:00,37.0,-99.9,-100.00,North,-999,-999.0,-999.0,-999,0.00,,,0.00,,2013-04-21 13:42:00,
2013-04-21 10:02:00,40.0,-99.9,-100.00,North,-999,-999.0,-999.0,-999,0.00,,,0.00,,2013-04-21 14:02:00,
2013-04-21 10:12:00,40.0,-99.9,-100.00,North,-999,-999.0,-999.0,-999,0.00,,,0.00,,2013-04-21 14:12:00,
2013-04-21 10:22:00,40.0,-99.9,-100.00,North,-999,-999.0,-999.0,-999,0.00,,,0.00,,2013-04-21 14:22:00,
2013-04-21 10:32:00,40.0,-99.9,-100.00,North,-999,-999.0,-999.0,-999,0.00,,,0.00,,2013-04-21 14:32:00,
2013-04-21 10:42:00,40.0,-99.9,-100.00,North,-999,-999.0,-999.0,-999,0.00,,,0.00,,2013-04-21 14:42:00,
2013-04-21 11:02:00,42.0,-99.9,-100.00,North,-999,-999.0,-999.0,-999,0.00,,,0.00,,2013-04-21 15:02:00,
2013-04-21 11:12:00,42.0,-99.9,-100.00,North,-999,-999.0,-999.0,-999,0.00,,,0.00,,2013-04-21 15:12:00,
2013-04-21 11:22:00,42.0,-99.9,-100.00,North,-999,-999.0,-999.0,-999,0.00,,,0.00,,2013-04-21 15:22:00,
2013-04-21 11:33:00,42.0,-99.9,-100.00,North,-999,-999.0,-999.0,-999,0.00,,,0.00,,2013-04-21 15:33:00,
2013-04-21 11:43:00,42.0,-99.9,-100.00,North,-999,-999.0,-999.0,-999,0.00,,,0.00,,2013-04-21 15:43:00,
2013-04-21 12:03:00,43.0,-99.9,-100.00,North,-999,-999.0,-999.0,-999,0.00,,,0.00,,2013-04-21 16:03:00,
2013-04-21 12:13:00,43.0,-99.9,-100.00,North,-999,-999.0,-999.0,-999,0.00,,,0.00,,2013-04-21 16:13:00,
2013-04-21 12:23:00,43.0,-99.9,-100.00,North,-999,-999.0,-999.0,-999,0.00,,,0.00,,2013-04-21 16:23:00,
2013-04-21 12:33:00,43.0,-99.9,-100.00,North,-999,-999.0,-999.0,-999,0.00,,,0.00,,2013-04-21 16:33:00,
2013-04-21 12:42:00,43.0,-99.9,-100.00,North,-999,-999.0,-999.0,-999,0.00,,,0.00,,2013-04-21 16:42:00,
2013-04-21 13:02:00,46.0,-99.9,-100.00,North,-999,-999.0,-999.0,-999,0.00,,,0.00,,2013-04-21 17:02:00,
2013-04-21 13:12:00,46.0,-99.9,-100.00,North,-999,-999.0,-999.0,-999,0.00,,,0.00,,2013-04-21 17:12:00,
2013-04-21 13:23:00,46.0,-99.9,-100.00,North,-999,-999.0,-999.0,-999,0.00,,,0.00,,2013-04-21 17:23:00,
2013-04-21 13:32:00,46.0,-99.9,-100.00,North,-999,-999.0,-999.0,-999,0.00,,,0.00,,2013-04-21 17:32:00,
2013-04-21 13:42:00,46.0,-99.9,-100.00,North,-999,-999.0,-999.0,-999,0.00,,,0.00,,2013-04-21 17:42:00,
2013-04-21 14:03:00,48.0,-99.9,-100.00,North,-999,-999.0,-999.0,-999,0.00,,,0.00,,2013-04-21 18:03:00,
2013-04-21 14:12:00,48.0,-99.9,-100.00,North,-999,-999.0,-999.0,-999,0.00,,,0.00,,2013-04-21 18:12:00,
2013-04-21 14:22:00,48.0,-99.9,-100.00,North,-999,-999.0,-999.0,-999,0.00,,,0.00,,2013-04-21 18:22:00,
2013-04-21 14:33:00,48.0,-99.9,-100.00,North,-999,-999.0,-999.0,-999,0.00,,,0.00,,2013-04-21 18:33:00,
2013-04-21 14:42:00,48.0,-99.9,-100.00,North,-999,-999.0,-999.0,-999,0.00,,,0.00,,2013-04-21 18:42:00,
2013-04-21 15:02:00,50.0,-99.9,-100.00,North,-999,-999.0,-999.0,-999,0.00,,,0.00,,2013-04-21 19:02:00,
2013-04-21 15:12:00,50.0,-99.9,-100.00,North,-999,-999.0,-999.0,-999,0.00,,,0.00,,2013-04-21 19:12:00,
2013-04-21 15:22:00,50.0,-99.9,-100.00,North,-999,-999.0,-999.0,-999,0.00,,,0.00,,2013-04-21 19:22:00,
2013-04-21 15:32:00,50.0,-99.9,-100.00,North,-999,-999.0,-999.0,-999,0.00,,,0.00,,2013-04-21 19:32:00,
2013-04-21 15:43:00,50.0,-99.9,-100.00,North,-999,-999.0,-999.0,-999,0.00,,,0.00,,2013-04-21 19:43:00,
2013-04-21 16:02:00,50.0,-99.9,-100.00,North,-999,-999.0,-999.0,-999,0.00,,,0.00,,2013-04-21 20:02:00,
2013-04-21 16:12:00,50.0,-99.9,-100.00,North,-999,-999.0,-999.0,-999,0.00,,,0.00,,2013-04-21 20:12:00,
2013-04-21 16:22:00,50.0,-99.9,-100.00,North,-999,-999.0,-999.0,-999,0.00,,,0.00,,2013-04-21 20:22:00,
2013-04-21 16:32:00,50.0,-99.9,-100.00,North,-999,-999.0,-999.0,-999,0.00,,,0.00,,2013-04-21 20:32:00,
2013-04-21 16:42:00,50.0,-99.9,-100.00,North,-999,-999.0,-999.0,-999,0.00,,,0.00,,2013-04-21 20:42:00,
2013-04-21 17:02:00,51.0,-99.9,-100.00,North,-999,-999.0,-999.0,-999,0.00,,,-99.99,,2013-04-21 21:02:00,
2013-04-21 17:12:00,51.0,-99.9,-100.00,North,-999,-999.0,-999.0,-999,0.00,,,-99.99,,2013-04-21 21:12:00,
2013-04-21 17:22:00,51.0,-99.9,-100.00,North,-999,-999.0,-999.0,-999,0.00,,,-99.99,,2013-04-21 21:22:00,
2013-04-21 17:33:00,51.0,-99.9,-100.00,North,-999,-999.0,-999.0,-999,0.00,,,-99.99,,2013-04-21 21:33:00,
2013-04-21 17:43:00,51.0,-99.9,-100.00,North,-999,-999.0,-999.0,-999,0.00,,,-99.99,,2013-04-21 21:43:00,
2013-04-21 18:03:00,49.0,-99.9,-100.00,North,-999,-999.0,-999.0,-999,0.00,,,0.00,,2013-04-21 22:03:00,
2013-04-21 18:12:00,49.0,-99.9,-100.00,North,-999,-999.0,-999.0,-999,0.00,,,0.00,,2013-04-21 22:12:00,
2013-04-21 18:23:00,49.0,-99.9,-100.00,North,-999,-999.0,-999.0,-999,0.00,,,0.00,,2013-04-21 22:23:00,
2013-04-21 18:33:00,49.0,-99.9,-100.00,North,-999,-999.0,-999.0,-999,0.00,,,0.00,,2013-04-21 22:33:00,
2013-04-21 18:43:00,49.0,-99.9,-100.00,North,-999,-999.0,-999.0,-999,0.00,,,0.00,,2013-04-21 22:43:00,
2013-04-21 19:03:00,48.0,-99.9,-100.00,North,-999,-999.0,-999.0,-999,0.00,,,0.00,,2013-04-21 23:03:00,
2013-04-21 19:12:00,48.0,-99.9,-100.00,North,-999,-999.0,-999.0,-999,0.00,,,0.00,,2013-04-21 23:12:00,
2013-04-21 19:23:00,48.0,-99.9,-100.00,North,-999,-999.0,-999.0,-999,0.00,,,0.00,,2013-04-21 23:23:00,
2013-04-21 19:32:00,48.0,-99.9,-100.00,North,-999,-999.0,-999.0,-999,0.00,,,0.00,,2013-04-21 23:32:00,
2013-04-21 19:43:00,48.0,-99.9,-100.00,North,-999,-999.0,-999.0,-999,0.00,,,0.00,,2013-04-21 23:43:00,
2013-04-21 20:02:00,42.0,-99.9,-100.00,North,-999,-999.0,-999.0,-999,0.00,,,0.00,,2013-04-22 00:02:00,
2013-04-21 20:12:00,42.0,-99.9,-100.00,North,-999,-999.0,-999.0,-999,0.00,,,0.00,,2013-04-22 00:12:00,
2013-04-21 20:22:00,42.0,-99.9,-100.00,North,-999,-999.0,-999.0,-999,0.00,,,0.00,,2013-04-22 00:22:00,
2013-04-21 20:32:00,42.0,-99.9,-100.00,North,-999,-999.0,-999.0,-999,0.00,,,0.00,,2013-04-22 00:32:00,
2013-04-21 20:43:00,42.0,-99.9,-100.00,North,-999,-999.0,-999.0,-999,0.00,,,0.00,,2013-04-22 00:43:00,
2013-04-21 21:02:00,38.0,-99.9,-100.00,North,-999,-999.0,-999.0,-999,0.00,,,0.00,,2013-04-22 01:02:00,
2013-04-21 21:12:00,38.0,-99.9,-100.00,North,-999,-999.0,-999.0,-999,0.00,,,0.00,,2013-04-22 01:12:00,
2013-04-21 21:22:00,38.0,-99.9,-100.00,North,-999,-999.0,-999.0,-999,0.00,,,0.00,,2013-04-22 01:22:00,
2013-04-21 21:32:00,38.0,-99.9,-100.00,North,-999,-999.0,-999.0,-999,0.00,,,0.00,,2013-04-22 01:32:00,
2013-04-21 21:42:00,38.0,-99.9,-100.00,North,-999,-999.0,-999.0,-999,0.00,,,0.00,,2013-04-22 01:42:00,
2013-04-21 22:02:00,32.0,-99.9,-100.00,North,-999,-999.0,-999.0,-999,0.00,,,0.00,,2013-04-22 02:02:00,
2013-04-21 22:12:00,32.0,-99.9,-100.00,North,-999,-999.0,-999.0,-999,0.00,,,0.00,,2013-04-22 02:12:00,
2013-04-21 22:22:00,32.0,-99.9,-100.00,North,-999,-999.0,-999.0,-999,0.00,,,0.00,,2013-04-22 02:22:00,
2013-04-21 22:32:00,32.0,-99.9,-100.00,North,-999,-999.0,-999.0,-999,0.00,,,0.00,,2013-04-22 02:32:00,
2013-04-21 22:42:00,32.0,-99.9,-100.00,North,-999,-999.0,-999.0,-999,0.00,,,0.00,,2013-04-22 02:42:00,
2013-04-21 23:02:00,30.0,-99.9,-100.00,North,-999,-999.0,-999.0,-999,0.00,,,0.00,,2013-04-22 03:02:00,
2013-04-21 23:12:00,30.0,-99.9,-100.00,North,-999,-999.0,-999.0,-999,0.00,,,0.00,,2013-04-22 03:12:00,
2013-04-21 23:22:00,30.0,-99.9,-100.00,North,-999,-999.0,-999.0,-999,0.00,,,0.00,,2013-04-22 03:22:00,
2013-04-21 23:33:00,30.0,-99.9,-100.00,North,-999,-999.0,-999.0,-999,0.00,,,0.00,,2013-04-22 03:33:00,
2013-04-21 23:43:00,30.0,-99.9,-100.00,North,-999,-999.0,-999.0,-999,0.00,,,0.00,,2013-04-22 03:43:00,